Powrót do katalogu

STARLINK-38107

AktywnyŁącznośćVLEO
NORAD 100004·PAYLOAD·🇺🇸 United States

Wystrzelony Jul 14, 2026 z Vandenberg Space Force Base

Loading…

Następne Przeloty (najbliższe 24 godziny)

TLE

ŚwieżeSource: Space-Track

Epoka: Sep 14, 2026, 21:03 UTC

1 A0004U 26160D   26257.87749315  .00458154  00000-0  25806-2 0  9995
2 A0004  70.0017 210.9538 0003488 254.8737 105.2077 15.77773949 11102

Śledź STARLINK-38107 w czasie rzeczywistym z AllMySat

Download on the App Store